Burbank, CA

1:16 AM PDT on May 25, 2017 (GMT -0700)
Burbank-Glendale-Pasadena

Weather History for KBUR - October, 2013

Change the Weather History Date:

Wednesday, October 9, 2013

  Actual Average Record
Temperature  
Mean Temperature 58 °F 68 °F  
Max Temperature 63 °F 81 °F 104 °F (2015)
Min Temperature 53 °F 56 °F 43 °F (1949)
Degree Days  
Heating Degree Days 7 1  
Month to date heating degree days 7 9  
Since 1 July heating degree days 7 15  
Cooling Degree Days 0 4  
Month to date cooling degree days 66 43  
Year to date cooling degree days 1896 1174  
Growing Degree Days 9 (Base 50)    
Moisture  
Dew Point 48 °F    
Average Humidity 62    
Maximum Humidity 77    
Minimum Humidity 46    
Precipitation  
Precipitation 0.10 in 0.03 in 0.10 in (2013)
Month to date precipitation 0.10 0.22  
Year to date precipitation 2.71 13.09  
Since 1 July precipitation 0.11  
Sea Level Pressure  
Sea Level Pressure 29.73 in    
Wind  
Wind Speed 7 mph (SSW)    
Max Wind Speed 20 mph    
Max Gust Speed 24 mph    
Visibility 9 miles    
Events Rain    
T = Trace of Precipitation, MM = Missing Value Source: NWS Daily Summary

Daily Weather History Graph

Daily Weather History Graph

Search for Another Location

Airport or City:

Trip Planner

Search our weather history database for the weather conditions in past years. The results will help you decide how hot, cold, wet, or windy it might be!

Date:

Astronomy

Oct. 09, 2013 Rise Set
Actual Time 6:54 AM PDT 6:26 PM PDT
Civil Twilight 6:29 AM PDT 6:51 PM PDT
Nautical Twilight 6:00 AM PDT 7:20 PM PDT
Astronomical Twilight 5:30 AM PDT 7:49 PM PDT
Moon 11:44 AM PDT (10/9) 10:15 PM PDT (10/9)
Length of Visible Light 12h 22m
Length of Day
11h 32m
Waxing Crescent, 26% of the Moon is Illuminated
Oct 9
Waxing Crescent
Oct 11
First Quarter
Oct 18
Full
Oct 26
Last Quarter
Nov 3
New

Hourly Weather History & Observations

Time (PDT) Temp. Dew Point Humidity Pressure Visibility Wind Dir Wind Speed Gust Speed Precip Events Conditions
12:53 AM 63.0 °F 52.0 °F 67% 29.78 in 10.0 mi SSE 6.9 mph - N/A   Overcast
1:53 AM 62.1 °F 52.0 °F 70% 29.76 in 8.0 mi South 5.8 mph - N/A   Overcast
2:53 AM 63.0 °F 52.0 °F 67% 29.75 in 10.0 mi South 6.9 mph - 0.00 in   Overcast
3:53 AM 63.0 °F 50.0 °F 63% 29.73 in 10.0 mi SE 13.8 mph - N/A   Overcast
4:53 AM 62.1 °F 50.0 °F 65% 29.72 in 10.0 mi SE 10.4 mph - N/A   Overcast
5:53 AM 60.1 °F 52.0 °F 75% 29.73 in 10.0 mi SSW 6.9 mph - 0.00 in   Overcast
6:53 AM 60.1 °F 50.0 °F 69% 29.73 in 10.0 mi SSW 10.4 mph - N/A   Overcast
7:53 AM 60.1 °F 48.0 °F 64% 29.74 in 10.0 mi SSE 8.1 mph - N/A   Mostly Cloudy
8:53 AM 60.1 °F 48.0 °F 64% 29.75 in 10.0 mi South 5.8 mph - N/A   Mostly Cloudy
9:00 AM 60.8 °F 46.4 °F 59% 29.78 in 10.0 mi SSE 6.9 mph - N/A   Overcast
9:18 AM 60.8 °F 46.4 °F 59% 29.78 in 10.0 mi SSE 9.2 mph - N/A   Overcast
9:53 AM 61.0 °F 46.9 °F 60% 29.75 in 10.0 mi South 9.2 mph - N/A   Overcast
10:53 AM 62.1 °F 46.0 °F 56% 29.73 in 10.0 mi SSE 16.1 mph - N/A   Overcast
10:55 AM 62.6 °F 46.4 °F 55% 29.76 in 6.0 mi SSE 16.1 mph - 0.00 in Rain Light Rain
11:53 AM 57.9 °F 51.1 °F 78% 29.73 in 6.0 mi SSW 4.6 mph - 0.00 in Rain Rain
12:53 PM 60.1 °F 52.0 °F 75% 29.71 in 10.0 mi ESE 9.2 mph - 0.01 in   Overcast
1:53 PM 57.9 °F 48.9 °F 72% 29.69 in 7.0 mi West 3.5 mph - 0.06 in Rain Light Rain
2:53 PM 59.0 °F 50.0 °F 72% 29.69 in 2.5 mi WSW 15.0 mph 18.4 mph 0.03 in Rain Heavy Rain
2:57 PM 57.2 °F 50.0 °F 77% 29.72 in 5.0 mi WSW 17.3 mph - N/A Rain Heavy Rain
3:08 PM 57.2 °F 50.0 °F 77% 29.71 in 6.0 mi WSW 9.2 mph 18.4 mph N/A Rain Light Rain
3:24 PM 59.0 °F 50.0 °F 72% 29.71 in 10.0 mi Calm Calm - N/A Rain Light Rain
3:53 PM 60.1 °F 48.0 °F 64% 29.68 in 10.0 mi Calm Calm - N/A   Mostly Cloudy
4:53 PM 61.0 °F 48.0 °F 62% 29.67 in 10.0 mi South 10.4 mph - N/A   Mostly Cloudy
5:53 PM 61.0 °F 39.9 °F 46% 29.68 in 10.0 mi West 8.1 mph - N/A   Scattered Clouds
6:53 PM 60.1 °F 44.1 °F 55% 29.67 in 10.0 mi SW 5.8 mph - N/A   Scattered Clouds
7:53 PM 59.0 °F 41.0 °F 51% 29.69 in 10.0 mi West 8.1 mph - N/A   Scattered Clouds
8:53 PM 57.9 °F 44.1 °F 60% 29.72 in 10.0 mi West 6.9 mph - N/A   Mostly Cloudy
9:53 PM 57.0 °F 45.0 °F 64% 29.74 in 10.0 mi West 5.8 mph - N/A   Scattered Clouds
10:53 PM 55.9 °F 46.0 °F 69% 29.76 in 10.0 mi Calm Calm - N/A   Partly Cloudy
11:53 PM 54.0 °F 46.0 °F 75% 29.78 in 10.0 mi Calm Calm - N/A   Partly Cloudy